Weather History for Mount Carmel, IL

Change the Weather History Date:

Wednesday, September 25, 2013

  Actual Average (KLWV) Record (KLWV)
Temperature  
Mean Temperature 72 °F 66 °F  
Max Temperature 84 °F 78 °F 90 °F (2007)
Min Temperature 60 °F 53 °F 39 °F (2001)
Degree Days  
Heating Degree Days 0 3  
Month to date heating degree days 19  
Since 1 July heating degree days 20  
Cooling Degree Days 7 3  
Month to date cooling degree days 156  
Year to date cooling degree days 1339  
Growing Degree Days 22 (Base 50)    
Moisture  
Dew Point 62 °F    
Average Humidity 74    
Maximum Humidity 100    
Minimum Humidity 39    
Precipitation  
Precipitation 0.06 in 0.09 in 2.27 in (2011)
Month to date precipitation 2.57  
Year to date precipitation 31.92  
Sea Level Pressure  
Sea Level Pressure 29.86 in    
Wind  
Wind Speed 4 mph (ENE)    
Max Wind Speed 9 mph    
Max Gust Speed -    
Visibility 9 miles    
Events Rain    
T = Trace of Precipitation, MM = Missing Value Source: NWS Daily Summary

Daily Weather History Graph

Daily Weather History Graph

Search for Another Location

Airport:

Trip Planner

Search our weather history database for the weather conditions in past years. The results will help you decide how hot, cold, wet, or windy it might be!

Date:

Astronomy

Sep. 25, 2013 Rise Set
Actual Time 6:41 AM CDT 6:42 PM CDT
Civil Twilight 6:15 AM CDT 7:09 PM CDT
Nautical Twilight 5:44 AM CDT 7:40 PM CDT
Astronomical Twilight 5:12 AM CDT 8:11 PM CDT
Moon 10:52 PM CDT (9/25) 12:43 PM CDT (9/25)
Length of Visible Light 12h 54m
Length of Day
12h 01m
Waning Gibbous, 64% of the Moon is Illuminated
Sep 25
Waning Gibbous
Sep 26
Last Quarter
Oct 4
New
Oct 11
First Quarter
Oct 18
Full

Hourly Weather History & Observations

Time (CDT) Temp. Heat Index Dew Point Humidity Pressure Visibility Wind Dir Wind Speed Gust Speed Precip Events Conditions
12:15 AM 69.8 °F - 64.4 °F 83% 29.85 in 10.0 mi SSE 3.5 mph - N/A   Overcast
12:35 AM 69.8 °F - 64.4 °F 83% 29.85 in 10.0 mi South 8.1 mph - N/A Rain Rain
12:55 AM 68.0 °F - 64.4 °F 88% 29.84 in 7.0 mi SSW 4.6 mph - 0.05 in Rain Rain
1:15 AM 68.0 °F - 64.4 °F 88% 29.84 in 10.0 mi Calm Calm - 0.01 in Rain Light Rain
1:35 AM 68.0 °F - 64.4 °F 88% 29.84 in 10.0 mi Calm Calm - 0.01 in   Scattered Clouds
1:55 AM 66.2 °F - 64.4 °F 94% 29.84 in 7.0 mi Calm Calm - 0.01 in   Light Drizzle
2:15 AM 66.2 °F - 64.4 °F 94% 29.83 in 5.0 mi Calm Calm - N/A   Scattered Clouds
2:35 AM 66.2 °F - 64.4 °F 94% 29.84 in 5.0 mi Calm Calm - N/A   Scattered Clouds
2:55 AM 64.4 °F - 64.4 °F 100% 29.84 in 7.0 mi Calm Calm - N/A   Clear
4:35 AM 64.4 °F - 62.6 °F 94% 29.84 in 10.0 mi ENE 3.5 mph - N/A   Clear
5:35 AM 64.4 °F - 62.6 °F 94% 29.84 in 5.0 mi ENE 4.6 mph - N/A   Overcast
5:55 AM 64.4 °F - 62.6 °F 94% 29.85 in 7.0 mi ENE 3.5 mph - N/A   Overcast
6:15 AM 64.4 °F - 62.6 °F 94% 29.85 in 7.0 mi Calm Calm - N/A   Overcast
6:35 AM 64.4 °F - 62.6 °F 94% 29.86 in 7.0 mi Calm Calm - N/A   Mostly Cloudy
6:55 AM 64.4 °F - 62.6 °F 94% 29.86 in 7.0 mi ENE 4.6 mph - N/A   Scattered Clouds
7:15 AM 64.4 °F - 62.6 °F 94% 29.87 in 5.0 mi ENE 3.5 mph - N/A   Clear
7:35 AM 64.4 °F - 62.6 °F 94% 29.87 in 5.0 mi Calm Calm - N/A   Mostly Cloudy
7:55 AM 64.4 °F - 62.6 °F 94% 29.87 in 5.0 mi NE 3.5 mph - N/A   Mostly Cloudy
8:15 AM 64.4 °F - 62.6 °F 94% 29.87 in 7.0 mi NE 4.6 mph - N/A   Overcast
8:35 AM 68.0 °F - 62.6 °F 83% 29.88 in 10.0 mi ENE 5.8 mph - N/A   Overcast
8:55 AM 69.8 °F - 64.4 °F 83% 29.88 in 10.0 mi East 5.8 mph - N/A   Overcast
9:15 AM 71.6 °F - 64.4 °F 78% 29.87 in 10.0 mi East 5.8 mph - N/A   Overcast
9:35 AM 71.6 °F - 64.4 °F 78% 29.88 in 10.0 mi East 5.8 mph - N/A   Overcast
9:55 AM 73.4 °F - 64.4 °F 73% 29.88 in 10.0 mi SE 5.8 mph - N/A   Mostly Cloudy
10:15 AM 73.4 °F - 64.4 °F 73% 29.88 in 10.0 mi East 3.5 mph - N/A   Clear
10:35 AM 75.2 °F - 64.4 °F 69% 29.87 in 10.0 mi East 4.6 mph - N/A   Clear
10:55 AM 77.0 °F - 64.4 °F 65% 29.87 in 10.0 mi East 5.8 mph - N/A   Clear
11:15 AM 77.0 °F - 64.4 °F 65% 29.88 in 10.0 mi East 5.8 mph - N/A   Clear
11:35 AM 78.8 °F - 64.4 °F 61% 29.87 in 10.0 mi SE 5.8 mph - N/A   Clear
11:55 AM 78.8 °F - 64.4 °F 61% 29.87 in 10.0 mi East 5.8 mph - N/A   Scattered Clouds
12:15 PM 78.8 °F - 64.4 °F 61% 29.87 in 10.0 mi East 5.8 mph - N/A   Scattered Clouds
12:35 PM 80.6 °F 81.8 °F 62.6 °F 54% 29.87 in 10.0 mi East 8.1 mph - N/A   Scattered Clouds
1:15 PM 82.4 °F 83.4 °F 62.6 °F 51% 29.85 in 10.0 mi East 8.1 mph - N/A   Scattered Clouds
1:35 PM 82.4 °F 82.9 °F 60.8 °F 48% 29.85 in 10.0 mi ENE 6.9 mph - N/A   Scattered Clouds
1:55 PM 80.6 °F 81.1 °F 59.0 °F 48% 29.84 in 10.0 mi East 6.9 mph - N/A   Mostly Cloudy
2:15 PM 80.6 °F 81.1 °F 59.0 °F 48% 29.84 in 10.0 mi ESE 5.8 mph - N/A   Scattered Clouds
2:35 PM 82.4 °F 82.0 °F 57.2 °F 42% 29.84 in 10.0 mi ESE 6.9 mph - N/A   Mostly Cloudy
2:55 PM 80.6 °F 81.1 °F 59.0 °F 48% 29.84 in 10.0 mi NNE 6.9 mph - N/A   Overcast
3:15 PM 82.4 °F 81.7 °F 55.4 °F 39% 29.84 in 10.0 mi ENE 9.2 mph - N/A   Overcast
3:55 PM 84.2 °F 83.8 °F 59.0 °F 42% 29.83 in 10.0 mi ENE 9.2 mph - N/A   Scattered Clouds
4:15 PM 82.4 °F 81.7 °F 55.4 °F 39% 29.83 in 10.0 mi NE 5.8 mph - N/A   Scattered Clouds
4:35 PM 82.4 °F 81.7 °F 55.4 °F 39% 29.84 in 10.0 mi East 8.1 mph - N/A   Clear
4:55 PM 82.4 °F 82.0 °F 57.2 °F 42% 29.83 in 10.0 mi ENE 4.6 mph - N/A   Scattered Clouds
5:15 PM 80.6 °F 81.1 °F 59.0 °F 48% 29.84 in 10.0 mi ENE 6.9 mph - N/A   Scattered Clouds
5:35 PM 80.6 °F 81.1 °F 59.0 °F 48% 29.84 in 10.0 mi ENE 6.9 mph - N/A   Clear
5:55 PM 78.8 °F - 59.0 °F 51% 29.85 in 10.0 mi ENE 4.6 mph - N/A   Clear
6:15 PM 78.8 °F - 59.0 °F 51% 29.85 in 10.0 mi NE 5.8 mph - N/A   Clear
6:35 PM 77.0 °F - 59.0 °F 54% 29.85 in 10.0 mi NE 4.6 mph - N/A   Clear
6:55 PM 73.4 °F - 60.8 °F 65% 29.86 in 10.0 mi ENE 3.5 mph - N/A   Clear
7:15 PM 71.6 °F - 60.8 °F 69% 29.86 in 10.0 mi ENE 4.6 mph - N/A   Clear
7:35 PM 71.6 °F - 60.8 °F 69% 29.86 in 10.0 mi NE 4.6 mph - N/A   Clear
7:55 PM 69.8 °F - 60.8 °F 73% 29.87 in 10.0 mi ENE 4.6 mph - N/A   Clear
8:15 PM 69.8 °F - 60.8 °F 73% 29.87 in 10.0 mi Calm Calm - N/A   Clear
8:35 PM 68.0 °F - 60.8 °F 78% 29.88 in 10.0 mi Calm Calm - N/A   Clear
8:55 PM 66.2 °F - 60.8 °F 83% 29.88 in 10.0 mi Calm Calm - N/A   Clear
9:15 PM 66.2 °F - 60.8 °F 83% 29.89 in 10.0 mi Calm Calm - N/A   Clear
9:35 PM 66.2 °F - 60.8 °F 83% 29.89 in 10.0 mi Calm Calm - N/A   Clear
9:55 PM 66.2 °F - 60.8 °F 83% 29.90 in 10.0 mi Calm Calm - N/A   Clear
10:15 PM 62.6 °F - 60.8 °F 94% 29.90 in 10.0 mi Calm Calm - N/A   Clear
10:35 PM 64.4 °F - 60.8 °F 88% 29.90 in 10.0 mi Calm Calm - N/A   Clear
10:55 PM 62.6 °F - 60.8 °F 94% 29.90 in 10.0 mi Calm Calm - N/A   Clear
11:15 PM 62.6 °F - 59.0 °F 88% 29.90 in 10.0 mi Calm Calm - N/A   Clear
11:35 PM 60.8 °F - 59.0 °F 94% 29.90 in 10.0 mi Calm Calm - N/A   Clear
11:55 PM 60.8 °F - 59.0 °F 94% 29.90 in 10.0 mi Calm Calm - N/A   Clear